Regional Weather Roundup
Issued by NWS

Home | Current Version | Previous Version | Graphics & Text | Print | Product List | Glossary On
Versions: 1 2 3 4 5 6 7 8 9 10 11 12 13 14 15 16 17 18 19 20 21 22 23 24 25 26 27 28 29 30 31 32 33 34 35 36 37 38 39 40 41 42 43 44 45 46 47 48 49 50
456
ASUS43 KLSX 230107
RWRMO
STLRWRMO ALL

WEATHER SUMMARY FOR MISSOURI
NATIONAL WEATHER SERVICE SPRINGFIELD MO
800 PM CDT MON MAY 22 2017

NOTE: "FAIR" INDICATES FEW OR NO CLOUDS BELOW 12,000 FEET WITH NO
       SIGNIFICANT WEATHER AND/OR OBSTRUCTIONS TO VISIBILITY.
       CURRENT SKY AND/OR WEATHER CONDITIONS ARE NOT AVAILABLE FOR
       CHILLICOTHE AND FARMINGTON.

MOZ001>031-035>038-043-044-053-054-230200-
...NORTHERN AND WESTERN MISSOURI...

CITY           SKY/WX    TMP DP  RH WIND       PRES   REMARKS
KANSAS CTY INT LGT RAIN  59  57  93 SE7       29.92F
KANSAS C DTWN  CLOUDY    60  57  89 E7        29.91F
LEE`S SUMMIT   CLOUDY    60  56  86 E7        29.93F
ST JOSEPH      CLOUDY    61  58  90 S8        29.91S
CHILLICOTHE      N/A     58  57  97 SE3       29.94F
KIRKSVILLE     LGT RAIN  57  55  93 CALM      29.95F

$$
MOZ066>068-077>081-088>096-101>105-230200-
...SOUTHWEST MISSOURI...

CITY           SKY/WX    TMP DP  RH WIND       PRES   REMARKS
SPRINGFIELD    MOCLDY    69  49  48 S5        29.94S
JOPLIN         CLOUDY    70  56  61 CALM      29.93F
BRANSON        MOCLDY    64  54  68 CALM      29.97R

$$
MOZ032>034-039>042-045>050-055>058-069>072-230200-
...CENTRAL MISSOURI...

CITY           SKY/WX    TMP DP  RH WIND       PRES   REMARKS
COLUMBIA       LGT RAIN  68  57  68 W6        29.95S
JEFFERSON CITY CLOUDY    73  57  57 CALM      29.93S
ROLLA          CLOUDY    66  56  70 SE5       29.95S
SEDALIA        RAIN      60  58  92 NE10      29.96S
WHITEMAN AFB   DRIZZLE   60  60 100 NE8       29.94S
WARRENSBURG    CLOUDY    59  54  82 NE6       29.94S
OSAGE BEACH    MOCLDY    68  58  70 S3        29.95S

$$
MOZ051-052-059>065-230200-
...EAST CENTRAL MISSOURI...

CITY           SKY/WX    TMP DP  RH WIND       PRES   REMARKS
ST LOUIS INTL  CLOUDY    75  47  36 SW3       29.95R
SPIRIT OF STL  CLOUDY    68  59  73 SW3       29.93S
ST CHARLES     CLOUDY    69  55  60 CALM      29.93S

$$
MOZ072>076-082>087-097>100-106>115-230200-
...SOUTH CENTRAL AND SOUTHEAST MISSOURI...

CITY           SKY/WX    TMP DP  RH WIND       PRES   REMARKS
CAPE GIRARDEAU CLOUDY    68  48  48 E6        29.96S
FARMINGTON     MOCLDY    66  52  60 SE5       29.97S
POPLAR BLUFF   CLOUDY    70  59  68 CALM      29.95S
WEST PLAINS    PTCLDY    65  55  70 CALM      29.97S

$$




USA.gov is the U.S. government's official web portal to all federal, state and local government web resources and services.